Regional Weather Roundup
Issued by NWS Sioux Falls, SD

Home | Current Version | Previous Version | Text Only | Print | Product List | Glossary On
Versions: 1 2 3 4 5 6 7 8 9 10 11 12 13 14 15 16 17 18 19 20 21 22 23 24 25 26 27 28 29 30 31 32 33 34 35 36 37 38 39 40 41 42 43 44 45 46 47 48 49 50
000
ASUS43 KFSD 010602
RWRFSD

WEATHER ROUNDUP FOR SE SOUTH DAKOTA/SW MINNESOTA/NW IOWA
NATIONAL WEATHER SERVICE SIOUX FALLS SD
100 AM CDT WED APR 01 2015

NOTE: "FAIR" INDICATES FEW OR NO CLOUDS BELOW 12,000 FEET WITH NO
SIGNIFICANT WEATHER AND OR OBSTRUCTIONS TO VISIBILITY.


SDZ038>040-050-052>070-010700-
SOUTHEAST SOUTH DAKOTA

CITY           SKY/WX    TMP DP  RH WIND       PRES   REMARKS
BROOKINGS      MOCLDY    54  32  43 SE15G22   29.73F
CHAMBERLAIN    NOT AVBL
HURON          MOCLDY    57  32  38 S13G22    29.64F
6HR MIN TEMP:  57; 6HR MAX TEMP:  76;

MADISON        FAIR      52  32  46 SE12      29.73F
MITCHELL       MOCLDY    59  32  36 S17       29.67F
6HR MIN TEMP:  58; 6HR MAX TEMP:  78;

SIOUX FALLS    PTCLDY    60  30  32 S18       29.74F
6HR MIN TEMP:  60; 6HR MAX TEMP:  73;

WINNER         FAIR      65  26  23 S21       29.62F
YANKTON        PTCLDY    59  32  36 S15       29.74S
$$

MNZ071-072-080-081-089-090-097-098-010700-
SOUTHWEST MINNESOTA

CITY           SKY/WX    TMP DP  RH WIND       PRES   REMARKS
FAIRMONT       CLEAR     46  30  53 SE6       29.83F
JACKSON        CLEAR     54  30  40 S10       29.82F
LUVERNE        CLEAR     46  32  57 S5        29.77F
MARSHALL       PTCLDY    48  28  46 SE10      29.77F
6HR MIN TEMP:  48; 6HR MAX TEMP:  68;

MONTEVIDEO     CLEAR     50  34  53 S15       29.76F
PIPESTONE      PTCLDY    55  28  35 S14       29.76F
REDWOOD FALLS  CLEAR     51  34  52 SE14      29.79F
TRACY          CLEAR     51  32  48 S10       29.77F
WINDOM         CLEAR     52  30  43 CALM      29.80F
WORTHINGTON    CLEAR     55  28  35 S16       29.80F
$$

IAZ001>003-012>014-020>022-031-032-NEZ013-014-SDZ071-010700-
NORTHWEST IOWA

CITY           SKY/WX    TMP DP  RH WIND       PRES   REMARKS
DENISON        PTCLDY    57  30  35 S15G23    29.83S
ESTHERVILLE    CLEAR     43  32  65 S8        29.82F
SIOUX CITY     CLEAR     59  31  34 S13       29.80F
6HR MIN TEMP:  54; 6HR MAX TEMP:  75;

SPENCER        CLEAR     47  33  58 S10       29.81F
6HR MIN TEMP:  47; 6HR MAX TEMP:  70;

$$

ABBREVIATIONS USED IN REMARKS
   TC - TEMPERATURE IN CELSIUS
  WCI - WIND CHILL INDEX
   HX - HEAT INDEX
  VSB - VISIBILITY




USA.gov is the U.S. government's official web portal to all federal, state and local government web resources and services.